{"data":{"norad_id":57061,"epoch":"2026-09-20T22:19:18.617376Z","epoch_age_seconds":83842,"freshness":"FRESH","line1":"1 57061U 23088P   26263.93007659 -.00167002  00000+0 -62589-2 0  9997","line2":"2 57061  43.0042  91.2947 0001750 269.2441  90.8210 15.27253313179174","mean_motion":15.27253313,"eccentricity":0.000175,"inclination_deg":43.0042,"raan_deg":91.2947,"arg_perigee_deg":269.2441,"mean_anomaly_deg":90.821,"bstar":-0.0062589,"rev_number":17917,"period_min":94.286912835134,"perigee_km":482.82661002444,"apogee_km":485.22836759553,"semimajor_km":6862.16448881,"source":"CELESTRAK","updated_at":"2026-09-21T09:00:33.550462Z"}}